Year,Month,Day,Hour,Minute,Value (Times are PST for temperature in C)
2019,08,12,00,00,16.50
2019,08,12,00,01,16.50
2019,08,12,00,02,16.50
2019,08,12,00,03,16.50
2019,08,12,00,04,16.50
2019,08,12,00,05,16.50
2019,08,12,00,06,16.50
2019,08,12,00,07,16.50
2019,08,12,00,08,16.50
2019,08,12,00,09,16.40
2019,08,12,00,10,16.40
2019,08,12,00,11,16.40
2019,08,12,00,12,16.40
2019,08,12,00,13,16.40
2019,08,12,00,14,16.40
2019,08,12,00,15,16.40
2019,08,12,00,16,16.40
2019,08,12,00,17,16.40
2019,08,12,00,18,16.40
2019,08,12,00,19,16.40
2019,08,12,00,20,16.40
2019,08,12,00,21,16.40
2019,08,12,00,22,16.30
2019,08,12,00,23,16.30
2019,08,12,00,24,16.40
2019,08,12,00,25,16.30
2019,08,12,00,26,16.40
2019,08,12,00,27,16.40
2019,08,12,00,28,16.40
2019,08,12,00,29,16.40
2019,08,12,00,30,16.40
2019,08,12,00,31,16.40
2019,08,12,00,32,16.40
2019,08,12,00,33,16.40
2019,08,12,00,34,16.40
2019,08,12,00,35,16.40
2019,08,12,00,36,16.40
2019,08,12,00,37,16.30
2019,08,12,00,38,16.30
2019,08,12,00,39,16.30
2019,08,12,00,40,16.30
2019,08,12,00,41,16.30
2019,08,12,00,42,16.30
2019,08,12,00,43,16.20
2019,08,12,00,44,16.20
2019,08,12,00,45,16.20
2019,08,12,00,46,16.20
2019,08,12,00,47,16.20
2019,08,12,00,48,16.20
2019,08,12,00,49,16.20
2019,08,12,00,50,16.20
2019,08,12,00,51,16.10
2019,08,12,00,52,16.20
2019,08,12,00,53,16.10
2019,08,12,00,54,16.20
2019,08,12,00,55,16.20
2019,08,12,00,56,16.20
2019,08,12,00,57,16.20
2019,08,12,00,58,16.20
2019,08,12,00,59,16.20
2019,08,12,01,00,16.20
2019,08,12,01,01,16.20
2019,08,12,01,02,16.20
2019,08,12,01,03,16.20
2019,08,12,01,04,16.20
2019,08,12,01,05,16.20
2019,08,12,01,06,16.20
2019,08,12,01,07,16.20
2019,08,12,01,08,16.20
2019,08,12,01,09,16.20
2019,08,12,01,10,16.20
2019,08,12,01,11,16.20
2019,08,12,01,12,16.20
2019,08,12,01,13,16.20
2019,08,12,01,14,16.20
2019,08,12,01,15,16.20
2019,08,12,01,16,16.20
2019,08,12,01,17,16.20
2019,08,12,01,18,16.20
2019,08,12,01,19,16.20
2019,08,12,01,20,16.20
2019,08,12,01,21,16.20
2019,08,12,01,22,16.20
2019,08,12,01,23,16.20
2019,08,12,01,24,16.20
2019,08,12,01,25,16.20
2019,08,12,01,26,16.20
2019,08,12,01,27,16.30
2019,08,12,01,28,16.20
2019,08,12,01,29,16.20
2019,08,12,01,30,16.30
2019,08,12,01,31,16.30
2019,08,12,01,32,16.20
2019,08,12,01,33,16.20
2019,08,12,01,34,16.30
2019,08,12,01,35,16.20
2019,08,12,01,36,16.20
2019,08,12,01,37,16.20
2019,08,12,01,38,16.20
2019,08,12,01,39,16.20
2019,08,12,01,40,16.20
2019,08,12,01,41,16.20
2019,08,12,01,42,16.20
2019,08,12,01,43,16.20
2019,08,12,01,44,16.20
2019,08,12,01,45,16.20
2019,08,12,01,46,16.20
2019,08,12,01,47,16.20
2019,08,12,01,48,16.20
2019,08,12,01,49,16.30
2019,08,12,01,50,16.30
2019,08,12,01,51,16.20
2019,08,12,01,52,16.20
2019,08,12,01,53,16.20
2019,08,12,01,54,16.20
2019,08,12,01,55,16.20
2019,08,12,01,56,16.20
2019,08,12,01,57,16.20
2019,08,12,01,58,16.20
2019,08,12,01,59,16.20
2019,08,12,02,00,16.20
2019,08,12,02,01,16.20
2019,08,12,02,02,16.20
2019,08,12,02,03,16.20
2019,08,12,02,04,16.20
2019,08,12,02,05,16.30
2019,08,12,02,06,16.30
2019,08,12,02,07,16.30
2019,08,12,02,08,16.30
2019,08,12,02,09,16.30
2019,08,12,02,10,16.30
2019,08,12,02,11,16.30
2019,08,12,02,12,16.30
2019,08,12,02,13,16.30
2019,08,12,02,14,16.30
2019,08,12,02,15,16.40
2019,08,12,02,16,16.30
2019,08,12,02,17,16.40
2019,08,12,02,18,16.40
2019,08,12,02,19,16.40
2019,08,12,02,20,16.40
2019,08,12,02,21,16.40
2019,08,12,02,22,16.40
2019,08,12,02,23,16.40
2019,08,12,02,24,16.40
2019,08,12,02,25,16.40
2019,08,12,02,26,16.40
2019,08,12,02,27,16.40
2019,08,12,02,28,16.40
2019,08,12,02,29,16.40
2019,08,12,02,30,16.40
2019,08,12,02,31,16.40
2019,08,12,02,32,16.40
2019,08,12,02,33,16.40
2019,08,12,02,34,16.40
2019,08,12,02,35,16.40
2019,08,12,02,36,16.50
2019,08,12,02,37,16.50
2019,08,12,02,38,16.40
2019,08,12,02,39,16.40
2019,08,12,02,40,16.50
2019,08,12,02,41,16.40
2019,08,12,02,42,16.40
2019,08,12,02,43,16.50
2019,08,12,02,44,16.50
2019,08,12,02,45,16.50
2019,08,12,02,46,16.40
2019,08,12,02,47,16.40
2019,08,12,02,48,16.40
2019,08,12,02,49,16.40
2019,08,12,02,50,16.40
2019,08,12,02,51,16.40
2019,08,12,02,52,16.50
2019,08,12,02,53,16.40
2019,08,12,02,54,16.40
2019,08,12,02,55,16.50
2019,08,12,02,56,16.40
2019,08,12,02,57,16.50
2019,08,12,02,58,16.50
2019,08,12,02,59,16.50
2019,08,12,03,00,16.50
2019,08,12,03,01,16.40
2019,08,12,03,02,16.40
2019,08,12,03,03,16.40
2019,08,12,03,04,16.50
2019,08,12,03,05,16.40
2019,08,12,03,06,16.40
2019,08,12,03,07,16.40
2019,08,12,03,08,16.40
2019,08,12,03,09,16.40
2019,08,12,03,10,16.40
2019,08,12,03,11,16.40
2019,08,12,03,12,16.40
2019,08,12,03,13,16.40
2019,08,12,03,14,16.40
2019,08,12,03,15,16.40
2019,08,12,03,16,16.40
2019,08,12,03,17,16.40
2019,08,12,03,18,16.40
2019,08,12,03,19,16.40
2019,08,12,03,20,16.40
2019,08,12,03,21,16.40
2019,08,12,03,22,16.40
2019,08,12,03,23,16.40
2019,08,12,03,24,16.40
2019,08,12,03,25,16.40
2019,08,12,03,26,16.30
2019,08,12,03,27,16.40
2019,08,12,03,28,16.30
2019,08,12,03,29,16.30
2019,08,12,03,30,16.30
2019,08,12,03,31,16.30
2019,08,12,03,32,16.30
2019,08,12,03,33,16.30
2019,08,12,03,34,16.30
2019,08,12,03,35,16.30
2019,08,12,03,36,16.30
2019,08,12,03,37,16.30
2019,08,12,03,38,16.30
2019,08,12,03,39,16.30
2019,08,12,03,40,16.30
2019,08,12,03,41,16.30
2019,08,12,03,42,16.30
2019,08,12,03,43,16.30
2019,08,12,03,44,16.30
2019,08,12,03,45,16.30
2019,08,12,03,46,16.30
2019,08,12,03,47,16.30
2019,08,12,03,48,16.30
2019,08,12,03,49,16.30
2019,08,12,03,50,16.30
2019,08,12,03,51,16.30
2019,08,12,03,52,16.30
2019,08,12,03,53,16.30
2019,08,12,03,54,16.30
2019,08,12,03,55,16.30
2019,08,12,03,56,16.20
2019,08,12,03,57,16.20
2019,08,12,03,58,16.20
2019,08,12,03,59,16.20
2019,08,12,04,00,16.20
2019,08,12,04,01,16.20
2019,08,12,04,02,16.20
2019,08,12,04,03,16.20
2019,08,12,04,04,16.20
2019,08,12,04,05,16.20
2019,08,12,04,06,16.20
2019,08,12,04,07,16.20
2019,08,12,04,08,16.20
2019,08,12,04,09,16.20
2019,08,12,04,10,16.20
2019,08,12,04,11,16.20
2019,08,12,04,12,16.20
2019,08,12,04,13,16.20
2019,08,12,04,14,16.20
2019,08,12,04,15,16.20
2019,08,12,04,16,16.20
2019,08,12,04,17,16.20
2019,08,12,04,18,16.20
2019,08,12,04,19,16.20
2019,08,12,04,20,16.20
2019,08,12,04,21,16.20
2019,08,12,04,22,16.20
2019,08,12,04,23,16.20
2019,08,12,04,24,16.20
2019,08,12,04,25,16.20
2019,08,12,04,26,16.20
2019,08,12,04,27,16.20
2019,08,12,04,28,16.20
2019,08,12,04,29,16.20
2019,08,12,04,30,16.20
2019,08,12,04,31,16.20
2019,08,12,04,32,16.20
2019,08,12,04,33,16.20
2019,08,12,04,34,16.20
2019,08,12,04,35,16.20
2019,08,12,04,36,16.10
2019,08,12,04,37,16.20
2019,08,12,04,38,16.10
2019,08,12,04,39,16.10
2019,08,12,04,40,16.10
2019,08,12,04,41,16.10
2019,08,12,04,42,16.10
2019,08,12,04,43,16.10
2019,08,12,04,44,16.10
2019,08,12,04,45,16.10
2019,08,12,04,46,16.10
2019,08,12,04,47,16.10
2019,08,12,04,48,16.10
2019,08,12,04,49,16.10
2019,08,12,04,50,16.10
2019,08,12,04,51,16.10
2019,08,12,04,52,16.10
2019,08,12,04,53,16.10
2019,08,12,04,54,16.10
2019,08,12,04,55,16.10
2019,08,12,04,56,16.10
2019,08,12,04,57,16.10
2019,08,12,04,58,16.10
2019,08,12,04,59,16.10
2019,08,12,05,00,16.10
2019,08,12,05,01,16.10
2019,08,12,05,02,16.10
2019,08,12,05,03,16.10
2019,08,12,05,04,16.10
2019,08,12,05,05,16.10
2019,08,12,05,06,16.10
2019,08,12,05,07,16.10
2019,08,12,05,08,16.10
2019,08,12,05,09,16.10
2019,08,12,05,10,16.10
2019,08,12,05,11,16.10
2019,08,12,05,12,16.10
2019,08,12,05,13,16.10
2019,08,12,05,14,16.10
2019,08,12,05,15,16.10
2019,08,12,05,16,16.10
2019,08,12,05,17,16.10
2019,08,12,05,18,16.10
2019,08,12,05,19,16.10
2019,08,12,05,20,16.10
2019,08,12,05,21,16.10
2019,08,12,05,22,16.10
2019,08,12,05,23,16.10
2019,08,12,05,24,16.10
2019,08,12,05,25,16.10
2019,08,12,05,26,16.10
2019,08,12,05,27,16.10
2019,08,12,05,28,16.10
2019,08,12,05,29,16.10
2019,08,12,05,30,16.10
2019,08,12,05,31,16.10
2019,08,12,05,32,16.10
2019,08,12,05,33,16.10
2019,08,12,05,34,16.10
2019,08,12,05,35,16.10
2019,08,12,05,36,16.10
2019,08,12,05,37,16.10
2019,08,12,05,38,16.10
2019,08,12,05,39,16.10
2019,08,12,05,40,16.10
2019,08,12,05,41,16.10
2019,08,12,05,42,16.10
2019,08,12,05,43,16.10
2019,08,12,05,44,16.10
2019,08,12,05,45,16.10
2019,08,12,05,46,16.10
2019,08,12,05,47,16.10
2019,08,12,05,48,16.10
2019,08,12,05,49,16.10
2019,08,12,05,50,16.10
2019,08,12,05,51,16.10
2019,08,12,05,52,16.10
2019,08,12,05,53,16.10
2019,08,12,05,54,16.10
2019,08,12,05,55,16.10
2019,08,12,05,56,16.10
2019,08,12,05,57,16.10
2019,08,12,05,58,16.10
2019,08,12,05,59,16.10
2019,08,12,06,00,16.10
2019,08,12,06,01,16.10
2019,08,12,06,02,16.10
2019,08,12,06,03,16.10
2019,08,12,06,04,16.10
2019,08,12,06,05,16.10
2019,08,12,06,06,16.10
2019,08,12,06,07,16.10
2019,08,12,06,08,16.10
2019,08,12,06,09,16.10
2019,08,12,06,10,16.10
2019,08,12,06,11,16.10
2019,08,12,06,12,16.10
2019,08,12,06,13,16.10
2019,08,12,06,14,16.10
2019,08,12,06,15,16.10
2019,08,12,06,16,16.10
2019,08,12,06,17,16.10
2019,08,12,06,18,16.10
2019,08,12,06,19,16.10
2019,08,12,06,20,16.10
2019,08,12,06,21,16.10
2019,08,12,06,22,16.10
2019,08,12,06,23,16.10
2019,08,12,06,24,16.10
2019,08,12,06,25,16.10
2019,08,12,06,26,16.10
2019,08,12,06,27,16.10
2019,08,12,06,28,16.20
2019,08,12,06,29,16.10
2019,08,12,06,30,16.10
2019,08,12,06,31,16.20
2019,08,12,06,32,16.20
2019,08,12,06,33,16.20
2019,08,12,06,34,16.20
2019,08,12,06,35,16.20
2019,08,12,06,36,16.20
2019,08,12,06,37,16.20
2019,08,12,06,38,16.20
2019,08,12,06,39,16.20
2019,08,12,06,40,16.20
2019,08,12,06,41,16.20
2019,08,12,06,42,16.20
2019,08,12,06,43,16.20
2019,08,12,06,44,16.20
2019,08,12,06,45,16.20
2019,08,12,06,46,16.20
2019,08,12,06,47,16.20
2019,08,12,06,48,16.20
2019,08,12,06,49,16.20
2019,08,12,06,50,16.20
2019,08,12,06,51,16.20
2019,08,12,06,52,16.20
2019,08,12,06,53,16.20
2019,08,12,06,54,16.20
2019,08,12,06,55,16.20
2019,08,12,06,56,16.20
2019,08,12,06,57,16.20
2019,08,12,06,58,16.20
2019,08,12,06,59,16.20
2019,08,12,07,00,16.20
2019,08,12,07,01,16.20
2019,08,12,07,02,16.20
2019,08,12,07,03,16.20
2019,08,12,07,04,16.20
2019,08,12,07,05,16.20
2019,08,12,07,06,16.20
2019,08,12,07,07,16.20
2019,08,12,07,08,16.20
2019,08,12,07,09,16.20
2019,08,12,07,10,16.20
2019,08,12,07,11,16.20
2019,08,12,07,12,16.20
2019,08,12,07,13,16.20
2019,08,12,07,14,16.20
2019,08,12,07,15,16.20
2019,08,12,07,16,16.20
2019,08,12,07,17,16.20
2019,08,12,07,18,16.20
2019,08,12,07,19,16.20
2019,08,12,07,20,16.20
2019,08,12,07,21,16.20
2019,08,12,07,22,16.20
2019,08,12,07,23,16.20
2019,08,12,07,24,16.20
2019,08,12,07,25,16.20
2019,08,12,07,26,16.20
2019,08,12,07,27,16.20
2019,08,12,07,28,16.20
2019,08,12,07,29,16.20
2019,08,12,07,30,16.20
2019,08,12,07,31,16.20
2019,08,12,07,32,16.20
2019,08,12,07,33,16.20
2019,08,12,07,34,16.20
2019,08,12,07,35,16.20
2019,08,12,07,36,16.20
2019,08,12,07,37,16.20
2019,08,12,07,38,16.20
2019,08,12,07,39,16.20
2019,08,12,07,40,16.20
2019,08,12,07,41,16.20
2019,08,12,07,42,16.20
2019,08,12,07,43,16.20
2019,08,12,07,44,16.20
2019,08,12,07,45,16.20
2019,08,12,07,46,16.20
2019,08,12,07,47,16.20
2019,08,12,07,48,16.20
2019,08,12,07,49,16.20
2019,08,12,07,50,16.20
2019,08,12,07,51,16.20
2019,08,12,07,52,16.20
2019,08,12,07,53,16.20
2019,08,12,07,54,16.20
2019,08,12,07,55,16.20
2019,08,12,07,56,16.20
2019,08,12,07,57,16.20
2019,08,12,07,58,16.20
2019,08,12,07,59,16.20
2019,08,12,08,00,16.20
2019,08,12,08,01,16.20
2019,08,12,08,02,16.20
2019,08,12,08,03,16.20
2019,08,12,08,04,16.20
2019,08,12,08,05,16.20
2019,08,12,08,06,16.20
2019,08,12,08,07,16.20
2019,08,12,08,08,16.20
2019,08,12,08,09,16.20
2019,08,12,08,10,16.20
2019,08,12,08,11,16.20
2019,08,12,08,12,16.20
2019,08,12,08,13,16.20
2019,08,12,08,14,16.20
2019,08,12,08,15,16.20
2019,08,12,08,16,16.20
2019,08,12,08,17,16.20
2019,08,12,08,18,16.20
2019,08,12,08,19,16.20
2019,08,12,08,20,16.20
2019,08,12,08,21,16.20
2019,08,12,08,22,16.20
2019,08,12,08,23,16.20
2019,08,12,08,24,16.20
2019,08,12,08,25,16.20
2019,08,12,08,26,16.20
2019,08,12,08,27,16.20
2019,08,12,08,28,16.20
2019,08,12,08,29,16.20
2019,08,12,08,30,16.20
2019,08,12,08,31,16.20
2019,08,12,08,32,16.20
2019,08,12,08,33,16.20
2019,08,12,08,34,16.30
2019,08,12,08,35,16.30
2019,08,12,08,36,16.30
2019,08,12,08,37,16.30
2019,08,12,08,38,16.30
2019,08,12,08,39,16.30
2019,08,12,08,40,16.30
2019,08,12,08,41,16.30
2019,08,12,08,42,16.30
2019,08,12,08,43,16.30
2019,08,12,08,44,16.30
2019,08,12,08,45,16.30
2019,08,12,08,46,16.30
2019,08,12,08,47,16.30
2019,08,12,08,48,16.30
2019,08,12,08,49,16.30
2019,08,12,08,50,16.30
2019,08,12,08,51,16.40
2019,08,12,08,52,16.40
2019,08,12,08,53,16.40
2019,08,12,08,54,16.40
2019,08,12,08,55,16.40
2019,08,12,08,56,16.40
2019,08,12,08,57,16.40
2019,08,12,08,58,16.40
2019,08,12,08,59,16.40
2019,08,12,09,00,16.40
2019,08,12,09,01,16.40
2019,08,12,09,02,16.40
2019,08,12,09,03,16.40
2019,08,12,09,04,16.40
2019,08,12,09,05,16.40
2019,08,12,09,06,16.40
2019,08,12,09,07,16.40
2019,08,12,09,08,16.40
2019,08,12,09,09,16.40
2019,08,12,09,10,16.40
2019,08,12,09,11,16.40
2019,08,12,09,12,16.40
2019,08,12,09,13,16.30
2019,08,12,09,14,16.30
2019,08,12,09,15,16.30
2019,08,12,09,16,16.30
2019,08,12,09,17,16.30
2019,08,12,09,18,16.30
2019,08,12,09,19,16.30
2019,08,12,09,20,16.30
2019,08,12,09,21,16.30
2019,08,12,09,22,16.30
2019,08,12,09,23,16.30
2019,08,12,09,24,16.30
2019,08,12,09,25,16.30
2019,08,12,09,26,16.30
2019,08,12,09,27,16.30
2019,08,12,09,28,16.30
2019,08,12,09,29,16.30
2019,08,12,09,30,16.30
2019,08,12,09,31,16.30
2019,08,12,09,32,16.30
2019,08,12,09,33,16.30
2019,08,12,09,34,16.30
2019,08,12,09,35,16.30
2019,08,12,09,36,16.30
2019,08,12,09,37,16.30
2019,08,12,09,38,16.30
2019,08,12,09,39,16.30
2019,08,12,09,40,16.30
2019,08,12,09,41,16.30
2019,08,12,09,42,16.30
2019,08,12,09,43,16.30
2019,08,12,09,44,16.30
2019,08,12,09,45,16.30
2019,08,12,09,46,16.30
2019,08,12,09,47,16.30
2019,08,12,09,48,16.40
2019,08,12,09,49,16.30
2019,08,12,09,50,16.30
2019,08,12,09,51,16.40
2019,08,12,09,52,16.40
2019,08,12,09,53,16.40
2019,08,12,09,54,16.40
2019,08,12,09,55,16.40
2019,08,12,09,56,16.40
2019,08,12,09,57,16.40
2019,08,12,09,58,16.40
2019,08,12,09,59,16.40
2019,08,12,10,00,16.40
2019,08,12,10,01,16.40
2019,08,12,10,02,16.40
2019,08,12,10,03,16.40
2019,08,12,10,04,16.40
2019,08,12,10,05,16.40
2019,08,12,10,06,16.40
2019,08,12,10,07,16.40
2019,08,12,10,08,16.40
2019,08,12,10,09,16.40
2019,08,12,10,10,16.40
2019,08,12,10,11,16.40
2019,08,12,10,12,16.40
2019,08,12,10,13,16.40
2019,08,12,10,14,16.40
2019,08,12,10,15,16.40
2019,08,12,10,16,16.40
2019,08,12,10,17,16.40
2019,08,12,10,18,16.40
2019,08,12,10,19,16.40
2019,08,12,10,20,16.40
2019,08,12,10,21,16.40
2019,08,12,10,22,16.40
2019,08,12,10,23,16.40
2019,08,12,10,24,16.50
2019,08,12,10,25,16.40
2019,08,12,10,26,16.50
2019,08,12,10,27,16.50
2019,08,12,10,28,16.50
2019,08,12,10,29,16.50
2019,08,12,10,30,16.50
2019,08,12,10,31,16.50
2019,08,12,10,32,16.50
2019,08,12,10,33,16.50
2019,08,12,10,34,16.50
2019,08,12,10,35,16.50
2019,08,12,10,36,16.50
2019,08,12,10,37,16.50
2019,08,12,10,38,16.50
2019,08,12,10,39,16.50
2019,08,12,10,40,16.50
2019,08,12,10,41,16.50
2019,08,12,10,42,16.50
2019,08,12,10,43,16.50
2019,08,12,10,44,16.50
2019,08,12,10,45,16.50
2019,08,12,10,46,16.60
2019,08,12,10,47,16.50
2019,08,12,10,48,16.60
2019,08,12,10,49,16.60
2019,08,12,10,50,16.60
2019,08,12,10,51,16.60
2019,08,12,10,52,16.60
2019,08,12,10,53,16.60
2019,08,12,10,54,16.60
2019,08,12,10,55,16.70
2019,08,12,10,56,16.70
2019,08,12,10,57,16.70
2019,08,12,10,58,16.80
2019,08,12,10,59,16.80
2019,08,12,11,00,16.80
2019,08,12,11,01,16.80
2019,08,12,11,02,16.90
2019,08,12,11,03,16.90
2019,08,12,11,04,16.90
2019,08,12,11,05,16.90
2019,08,12,11,06,16.90
2019,08,12,11,07,17.00
2019,08,12,11,08,17.00
2019,08,12,11,09,17.00
2019,08,12,11,10,17.00
2019,08,12,11,11,17.00
2019,08,12,11,12,17.10
2019,08,12,11,13,17.10
2019,08,12,11,14,17.10
2019,08,12,11,15,17.10
2019,08,12,11,16,17.20
2019,08,12,11,17,17.20
2019,08,12,11,18,17.20
2019,08,12,11,19,17.20
2019,08,12,11,20,17.20
2019,08,12,11,21,17.30
2019,08,12,11,22,17.30
2019,08,12,11,23,17.30
2019,08,12,11,24,17.30
2019,08,12,11,25,17.30
2019,08,12,11,26,17.40
2019,08,12,11,27,17.40
2019,08,12,11,28,17.40
2019,08,12,11,29,17.40
2019,08,12,11,30,17.40
2019,08,12,11,31,17.40
2019,08,12,11,32,17.40
2019,08,12,11,33,17.40
2019,08,12,11,34,17.40
2019,08,12,11,35,17.40
2019,08,12,11,36,17.40
2019,08,12,11,37,17.40
2019,08,12,11,38,17.40
2019,08,12,11,39,17.40
2019,08,12,11,40,17.40
2019,08,12,11,41,17.40
2019,08,12,11,42,17.40
2019,08,12,11,43,17.40
2019,08,12,11,44,17.40
2019,08,12,11,45,17.50
2019,08,12,11,46,17.50
2019,08,12,11,47,17.50
2019,08,12,11,48,17.50
2019,08,12,11,49,17.60
2019,08,12,11,50,17.60
2019,08,12,11,51,17.60
2019,08,12,11,52,17.60
2019,08,12,11,53,17.60
2019,08,12,11,54,17.60
2019,08,12,11,55,17.60
2019,08,12,11,56,17.60
2019,08,12,11,57,17.60
2019,08,12,11,58,17.70
2019,08,12,11,59,17.70
2019,08,12,12,00,17.70
2019,08,12,12,01,17.70
2019,08,12,12,02,17.70
2019,08,12,12,03,17.70
2019,08,12,12,04,17.70
2019,08,12,12,05,17.80
2019,08,12,12,06,17.80
2019,08,12,12,07,17.80
2019,08,12,12,08,17.90
2019,08,12,12,09,17.90
2019,08,12,12,10,17.90
2019,08,12,12,11,18.00
2019,08,12,12,12,18.00
2019,08,12,12,13,18.10
2019,08,12,12,14,18.10
2019,08,12,12,15,18.20
2019,08,12,12,16,18.20
2019,08,12,12,17,18.20
2019,08,12,12,18,18.30
2019,08,12,12,19,18.30
2019,08,12,12,20,18.30
2019,08,12,12,21,18.40
2019,08,12,12,22,18.40
2019,08,12,12,23,18.40
2019,08,12,12,24,18.40
2019,08,12,12,25,18.40
2019,08,12,12,26,18.50
2019,08,12,12,27,18.50
2019,08,12,12,28,18.50
2019,08,12,12,29,18.60
2019,08,12,12,30,18.60
2019,08,12,12,31,18.60
2019,08,12,12,32,18.60
2019,08,12,12,33,18.60
2019,08,12,12,34,18.50
2019,08,12,12,35,18.50
2019,08,12,12,36,18.50
2019,08,12,12,37,18.40
2019,08,12,12,38,18.40
2019,08,12,12,39,18.40
2019,08,12,12,40,18.40
2019,08,12,12,41,18.40
2019,08,12,12,42,18.50
2019,08,12,12,43,18.50
2019,08,12,12,44,18.60
2019,08,12,12,45,18.60
2019,08,12,12,46,18.80
2019,08,12,12,47,18.80
2019,08,12,12,48,18.90
2019,08,12,12,49,19.00
2019,08,12,12,50,19.10
2019,08,12,12,51,19.20
2019,08,12,12,52,19.20
2019,08,12,12,53,19.30
2019,08,12,12,54,19.30
2019,08,12,12,55,19.30
2019,08,12,12,56,19.30
2019,08,12,12,57,19.20
2019,08,12,12,58,19.20
2019,08,12,12,59,19.10
2019,08,12,13,00,19.10
2019,08,12,13,01,19.10
2019,08,12,13,02,19.10
2019,08,12,13,03,19.10
2019,08,12,13,04,19.20
2019,08,12,13,05,19.30
2019,08,12,13,06,19.40
2019,08,12,13,07,19.60
2019,08,12,13,08,19.70
2019,08,12,13,09,19.80
2019,08,12,13,10,19.80
2019,08,12,13,11,19.90
2019,08,12,13,12,19.90
2019,08,12,13,13,19.90
2019,08,12,13,14,19.90
2019,08,12,13,15,19.90
2019,08,12,13,16,19.90
2019,08,12,13,17,19.90
2019,08,12,13,18,20.00
2019,08,12,13,19,20.00
2019,08,12,13,20,20.00
2019,08,12,13,21,20.00
2019,08,12,13,22,19.90
2019,08,12,13,23,19.90
2019,08,12,13,24,19.90
2019,08,12,13,25,20.00
2019,08,12,13,26,20.00
2019,08,12,13,27,20.00
2019,08,12,13,28,20.10
2019,08,12,13,29,20.20
2019,08,12,13,30,20.20
2019,08,12,13,31,20.30
2019,08,12,13,32,20.30
2019,08,12,13,33,20.40
2019,08,12,13,34,20.50
2019,08,12,13,35,20.50
2019,08,12,13,36,20.50
2019,08,12,13,37,20.50
2019,08,12,13,38,20.50
2019,08,12,13,39,20.50
2019,08,12,13,40,20.50
2019,08,12,13,41,20.50
2019,08,12,13,42,20.50
2019,08,12,13,43,20.50
2019,08,12,13,44,20.60
2019,08,12,13,45,20.60
2019,08,12,13,46,20.60
2019,08,12,13,47,20.70
2019,08,12,13,48,20.70
2019,08,12,13,49,20.70
2019,08,12,13,50,20.70
2019,08,12,13,51,20.70
2019,08,12,13,52,20.70
2019,08,12,13,53,20.80
2019,08,12,13,54,20.80
2019,08,12,13,55,20.90
2019,08,12,13,56,20.90
2019,08,12,13,57,21.00
2019,08,12,13,58,21.10
2019,08,12,13,59,21.10
2019,08,12,14,00,21.20
2019,08,12,14,01,21.20
2019,08,12,14,02,21.20
2019,08,12,14,03,21.30
2019,08,12,14,04,21.30
2019,08,12,14,05,21.30
2019,08,12,14,06,21.30
2019,08,12,14,07,21.40
2019,08,12,14,08,21.50
2019,08,12,14,09,21.70
2019,08,12,14,10,21.80
2019,08,12,14,11,21.90
2019,08,12,14,12,22.10
2019,08,12,14,13,22.10
2019,08,12,14,14,22.10
2019,08,12,14,15,22.10
2019,08,12,14,16,22.00
2019,08,12,14,17,22.00
2019,08,12,14,18,21.90
2019,08,12,14,19,21.90
2019,08,12,14,20,21.90
2019,08,12,14,21,21.90
2019,08,12,14,22,22.00
2019,08,12,14,23,22.00
2019,08,12,14,24,22.10
2019,08,12,14,25,22.20
2019,08,12,14,26,22.20
2019,08,12,14,27,22.20
2019,08,12,14,28,22.10
2019,08,12,14,29,22.10
2019,08,12,14,30,22.10
2019,08,12,14,31,22.10
2019,08,12,14,32,22.10
2019,08,12,14,33,22.10
2019,08,12,14,34,22.10
2019,08,12,14,35,22.10
2019,08,12,14,36,22.10
2019,08,12,14,37,22.10
2019,08,12,14,38,22.10
2019,08,12,14,39,22.10
2019,08,12,14,40,22.10
2019,08,12,14,41,22.00
2019,08,12,14,42,21.90
2019,08,12,14,43,21.90
2019,08,12,14,44,21.80
2019,08,12,14,45,21.80
2019,08,12,14,46,21.70
2019,08,12,14,47,21.70
2019,08,12,14,48,21.60
2019,08,12,14,49,21.60
2019,08,12,14,50,21.50
2019,08,12,14,51,21.50
2019,08,12,14,52,21.40
2019,08,12,14,53,21.40
2019,08,12,14,54,21.30
2019,08,12,14,55,21.20
2019,08,12,14,56,21.20
2019,08,12,14,57,21.10
2019,08,12,14,58,21.10
2019,08,12,14,59,21.00
2019,08,12,15,00,21.10
2019,08,12,15,01,21.10
2019,08,12,15,02,21.10
2019,08,12,15,03,21.10
2019,08,12,15,04,21.10
2019,08,12,15,05,21.10
2019,08,12,15,06,21.10
2019,08,12,15,07,21.10
2019,08,12,15,08,21.20
2019,08,12,15,09,21.20
2019,08,12,15,10,21.20
2019,08,12,15,11,21.20
2019,08,12,15,12,21.20
2019,08,12,15,13,21.30
2019,08,12,15,14,21.40
2019,08,12,15,15,21.50
2019,08,12,15,16,21.70
2019,08,12,15,17,21.90
2019,08,12,15,18,22.10
2019,08,12,15,19,22.30
2019,08,12,15,20,22.50
2019,08,12,15,21,22.60
2019,08,12,15,22,22.80
2019,08,12,15,23,22.90
2019,08,12,15,24,23.10
2019,08,12,15,25,23.20
2019,08,12,15,26,23.30
2019,08,12,15,27,23.30
2019,08,12,15,28,23.40
2019,08,12,15,29,23.40
2019,08,12,15,30,23.50
2019,08,12,15,31,23.50
2019,08,12,15,32,23.60
2019,08,12,15,33,23.60
2019,08,12,15,34,23.70
2019,08,12,15,35,23.60
2019,08,12,15,36,23.60
2019,08,12,15,37,23.60
2019,08,12,15,38,23.50
2019,08,12,15,39,23.40
2019,08,12,15,40,23.20
2019,08,12,15,41,23.10
2019,08,12,15,42,23.00
2019,08,12,15,43,22.90
2019,08,12,15,44,22.90
2019,08,12,15,45,22.90
2019,08,12,15,46,22.90
2019,08,12,15,47,22.90
2019,08,12,15,48,22.80
2019,08,12,15,49,22.80
2019,08,12,15,50,22.70
2019,08,12,15,51,22.60
2019,08,12,15,52,22.60
2019,08,12,15,53,22.60
2019,08,12,15,54,22.60
2019,08,12,15,55,22.70
2019,08,12,15,56,22.80
2019,08,12,15,57,22.90
2019,08,12,15,58,23.10
2019,08,12,15,59,23.20
2019,08,12,16,00,23.30
2019,08,12,16,01,23.40
2019,08,12,16,02,23.50
2019,08,12,16,03,23.70
2019,08,12,16,04,23.80
2019,08,12,16,05,23.90
2019,08,12,16,06,24.10
2019,08,12,16,07,24.20
2019,08,12,16,08,24.30
2019,08,12,16,09,24.20
2019,08,12,16,10,24.10
2019,08,12,16,11,23.90
2019,08,12,16,12,23.60
2019,08,12,16,13,23.40
2019,08,12,16,14,23.30
2019,08,12,16,15,23.20
2019,08,12,16,16,23.10
2019,08,12,16,17,23.00
2019,08,12,16,18,22.90
2019,08,12,16,19,22.80
2019,08,12,16,20,22.80
2019,08,12,16,21,22.80
2019,08,12,16,22,22.80
2019,08,12,16,23,22.90
2019,08,12,16,24,22.90
2019,08,12,16,25,22.90
2019,08,12,16,26,22.90
2019,08,12,16,27,23.00
2019,08,12,16,28,23.00
2019,08,12,16,29,23.00
2019,08,12,16,30,23.00
2019,08,12,16,31,23.00
2019,08,12,16,32,23.00
2019,08,12,16,33,23.10
2019,08,12,16,34,23.10
2019,08,12,16,35,23.20
2019,08,12,16,36,23.30
2019,08,12,16,37,23.30
2019,08,12,16,38,23.40
2019,08,12,16,39,23.40
2019,08,12,16,40,23.40
2019,08,12,16,41,23.40
2019,08,12,16,42,23.30
2019,08,12,16,43,23.30
2019,08,12,16,44,23.20
2019,08,12,16,45,23.10
2019,08,12,16,46,23.00
2019,08,12,16,47,23.00
2019,08,12,16,48,22.90
2019,08,12,16,49,22.90
2019,08,12,16,50,22.80
2019,08,12,16,51,22.80
2019,08,12,16,52,22.80
2019,08,12,16,53,22.80
2019,08,12,16,54,22.80
2019,08,12,16,55,22.80
2019,08,12,16,56,22.80
2019,08,12,16,57,22.90
2019,08,12,16,58,22.90
2019,08,12,16,59,22.90
2019,08,12,17,00,22.90
2019,08,12,17,01,22.90
2019,08,12,17,02,22.90
2019,08,12,17,03,22.90
2019,08,12,17,04,22.70
2019,08,12,17,05,22.50
2019,08,12,17,06,22.30
2019,08,12,17,07,22.20
2019,08,12,17,08,22.10
2019,08,12,17,09,21.90
2019,08,12,17,10,21.80
2019,08,12,17,11,21.70
2019,08,12,17,12,21.60
2019,08,12,17,13,21.60
2019,08,12,17,14,21.60
2019,08,12,17,15,21.70
2019,08,12,17,16,21.70
2019,08,12,17,17,21.70
2019,08,12,17,18,21.70
2019,08,12,17,19,21.80